Wind_Speed
7 7 8 8 9 9 9 10 11 11 12 13 14 14 15 16 16 16 16 16 15 13 12 11 11 10 10 10 11 11 9 10 13 14 14 15 15 15 15 15 15 14 14 15 15 15 16 17 17 18 18 19 20 22 23 24 24 24 24 25 25 26 27 27 28 29 29 30 31 31 31 32 32 34 35 36 36 36 34 32 31 32 33 33 34
6 6 6 7 7 8 9 10 10 11 12 13 14 15 15 15 16 16 16 17 16 15 12 11 11 10 10 11 12 11 9 11 13 14 15 16 15 15 15 14 14 14 15 15 15 15 16 17 17 18 19 20 21 22 23 23 24 24 25 26 26 27 28 28 29 29 30 31 31 31 31 32 33 35 36 37 36 35 33 32 31 32 33 34 34
5 5 5 6 7 7 8 9 10 11 12 13 14 15 15 15 16 16 16 16 16 15 13 12 12 12 12 12 12 10 9 10 13 15 15 16 15 15 14 14 14 14 14 14 15 15 16 17 18 18 19 20 21 22 23 23 24 25 26 27 27 28 29 29 30 30 31 31 31 32 32 33 35 36 37 38 37 35 33 32 32 33 34 34 35
4 5 5 6 6 7 8 9 10 11 12 14 15 16 16 16 16 15 15 15 15 14 13 13 14 14 14 14 13 11 11 11 14 16 16 15 15 15 14 14 14 14 14 14 14 15 16 17 18 18 19 20 21 22 23 24 25 26 27 28 29 29 30 31 31 32 32 32 32 33 34 36 37 38 39 39 38 36 34 33 33 34 35 36 36
4 4 5 5 6 7 8 9 10 12 13 15 16 17 17 16 16 16 15 15 14 13 14 14 14 15 15 15 14 13 13 12 14 17 16 14 14 15 14 14 14 13 13 13 14 15 16 17 17 18 19 20 21 22 24 25 26 27 28 29 30 31 32 32 33 33 33 33 34 35 36 38 39 40 40 40 39 37 35 35 36 37 38 37 37
4 4 5 5 6 7 8 10 11 13 14 16 17 17 17 17 18 16 15 14 14 14 15 16 15 15 15 15 15 14 14 12 13 15 17 15 13 14 13 13 12 13 13 13 13 14 15 16 17 18 19 20 22 23 24 26 26 27 28 30 31 32 33 34 34 34 34 35 35 37 38 39 40 41 41 40 39 37 36 37 38 39 39 39 38
4 4 5 5 6 7 9 11 13 15 16 18 19 18 18 19 19 17 15 15 16 16 16 16 15 15 15 15 15 15 14 13 12 13 15 15 14 13 13 12 11 12 12 13 13 15 16 17 18 19 19 21 22 24 25 26 27 28 29 30 32 33 33 34 34 34 35 35 36 38 39 41 42 41 41 40 39 38 38 38 40 40 40 39 38
4 4 5 6 7 9 11 13 15 17 18 19 20 19 20 21 19 17 17 16 17 17 17 17 16 16 15 15 16 16 15 14 13 13 13 13 13 13 14 13 13 13 12 13 15 15 16 17 18 19 20 21 23 25 25 26 27 28 30 31 33 33 34 34 34 34 35 36 37 39 41 42 42 42 41 40 39 38 39 40 40 41 40 39 37
5 5 5 7 8 10 12 14 16 18 19 19 20 20 21 21 19 18 18 17 17 17 17 16 16 16 16 15 16 16 15 15 13 13 12 11 11 11 13 14 15 16 15 14 14 15 16 17 17 18 20 22 24 25 25 26 28 29 31 32 33 34 34 34 35 35 36 37 38 40 42 43 43 42 41 40 39 39 39 40 41 40 39 38 37
6 6 6 7 9 11 13 15 17 18 19 20 21 21 21 21 20 20 19 18 16 16 17 16 16 16 16 16 16 16 16 15 14 14 13 11 10 9 10 11 13 16 16 13 12 15 16 17 17 18 20 23 24 25 26 27 28 30 31 32 33 34 34 35 35 36 37 38 40 42 43 44 43 42 41 40 39 39 40 40 40 40 40 39 38
7 7 7 8 10 11 13 15 17 19 20 20 21 21 22 22 21 20 20 18 17 17 17 16 16 16 16 16 16 16 16 16 15 14 12 10 10 8 7 8 8 11 15 14 13 14 16 17 17 18 20 22 24 25 26 27 29 30 32 33 34 34 35 35 36 37 38 39 41 43 44 44 43 41 40 39 39 39 40 40 41 40 40 39 38
8 8 8 9 10 12 13 15 17 19 21 22 22 22 22 22 21 20 20 19 17 17 16 15 15 16 16 16 16 16 16 16 15 15 13 10 10 9 8 7 7 8 13 16 16 15 16 17 18 19 20 22 23 25 27 28 30 31 32 33 34 34 35 35 36 37 39 41 42 43 44 43 42 40 39 38 39 40 40 41 41 40 40 39 37
8 9 9 9 10 12 13 15 17 19 21 22 23 23 23 23 22 20 20 19 18 16 15 14 14 15 16 16 16 16 16 16 15 14 15 12 11 12 11 11 10 9 11 14 17 18 17 17 18 20 21 22 24 26 28 30 30 31 32 33 34 34 35 36 37 38 40 42 43 44 44 42 40 38 38 39 40 40 40 40 40 40 39 38 36
8 9 10 10 11 12 13 14 16 19 21 22 22 23 23 23 22 21 20 19 18 16 15 14 15 15 16 16 16 17 17 16 15 13 15 14 12 12 13 14 14 12 11 12 15 18 18 17 18 21 22 23 25 28 31 32 32 32 33 34 35 35 35 36 37 39 41 43 44 45 44 41 38 38 39 40 40 40 40 40 40 39 38 37 36
9 9 10 11 12 13 13 14 16 18 20 21 22 24 23 23 22 21 20 19 18 16 14 14 15 15 16 16 16 17 17 16 15 13 13 15 14 12 12 13 16 16 13 13 14 17 19 18 17 19 22 23 25 28 31 34 34 34 34 35 35 35 35 36 38 40 42 44 44 44 42 40 38 39 41 41 41 40 41 41 40 39 38 37 36
10 10 11 12 13 14 14 14 16 18 20 21 22 24 24 23 22 21 20 19 18 15 14 14 14 15 15 16 17 17 17 16 16 14 12 13 15 15 13 12 15 17 16 15 15 16 18 20 18 18 20 23 25 27 31 34 35 35 35 36 35 35 34 36 39 42 43 44 45 44 41 39 39 41 42 42 41 42 42 41 40 39 38 37 38
11 11 11 13 14 15 15 15 15 18 20 21 22 24 24 23 22 21 20 20 18 16 16 15 15 15 15 16 17 17 18 16 16 15 13 13 14 16 16 14 14 17 18 17 18 18 19 21 21 20 21 23 25 27 30 33 35 35 35 36 35 34 34 37 41 43 43 44 44 43 40 39 40 42 42 42 42 42 42 41 40 39 38 39 40
9 10 12 14 16 16 16 15 16 17 20 21 22 23 24 23 22 21 20 20 19 18 17 17 16 16 15 16 17 17 18 18 17 16 15 15 15 16 17 15 13 15 18 18 18 20 20 20 22 23 23 24 25 27 30 33 35 35 35 36 35 34 34 38 42 44 44 44 44 42 40 40 41 42 42 42 42 43 42 41 40 39 40 41 42
8 10 12 15 16 17 17 17 16 17 19 20 21 23 23 23 22 21 20 20 20 18 17 17 17 17 16 16 16 17 18 18 17 17 17 16 16 17 18 18 15 14 16 18 17 19 21 21 22 24 25 26 27 27 30 33 35 35 36 36 35 34 34 38 43 45 44 44 44 42 41 41 41 42 42 42 42 42 42 40 40 40 41 43 43
10 12 13 15 17 18 18 17 17 17 18 19 21 23 23 22 22 21 20 20 20 19 18 17 17 18 18 17 16 17 18 18 17 17 17 16 16 17 19 20 20 17 16 17 18 19 21 21 21 23 25 27 29 30 31 34 35 36 37 37 36 35 35 39 44 46 45 45 44 42 41 41 42 42 42 42 43 42 41 40 40 42 43 43 44
13 14 16 17 18 18 18 18 17 16 17 19 21 22 22 22 22 21 20 20 21 20 19 19 19 19 19 18 17 17 18 18 18 17 17 16 16 17 18 20 22 22 19 17 18 19 21 21 21 21 22 26 29 32 33 35 36 36 37 37 36 36 37 40 45 47 47 46 44 42 41 41 42 42 42 43 43 42 41 41 42 43 44 44 45
16 17 18 19 20 19 19 18 18 16 17 19 20 21 22 22 21 21 20 20 21 21 21 20 20 21 20 20 19 19 19 19 19 19 19 17 16 16 18 19 21 22 21 19 18 18 20 22 23 22 22 23 27 30 33 35 36 36 37 37 37 38 38 41 45 47 47 45 43 41 41 41 42 42 43 43 43 42 41 42 43 44 44 45 46
19 19 19 20 21 20 19 19 18 16 17 18 19 20 21 21 21 21 20 21 21 21 22 22 22 21 20 20 20 20 21 21 21 21 21 20 19 17 16 18 19 21 22 22 20 18 20 23 24 25 24 24 26 29 31 34 35 36 36 37 38 39 40 42 45 46 46 44 42 41 41 41 42 42 43 43 43 42 42 43 44 44 44 45 46
21 18 18 19 21 21 20 19 19 17 16 18 19 20 21 22 21 21 21 21 21 22 22 23 23 22 21 20 21 21 22 22 22 22 23 22 21 20 18 17 17 18 20 22 21 20 20 23 25 27 27 26 27 29 31 33 34 35 36 38 40 41 42 43 44 45 44 43 41 41 41 41 42 43 43 44 44 43 43 44 44 44 44 45 45
20 17 17 19 21 21 20 19 19 18 16 17 19 20 21 22 22 21 21 21 22 22 22 23 23 22 21 21 21 22 22 23 23 23 23 23 22 22 21 19 17 16 17 19 20 20 20 22 25 27 28 28 29 31 32 33 34 35 36 38 40 42 42 43 44 44 43 42 41 41 41 41 42 43 44 44 44 43 43 44 44 44 45 45 45
22 20 20 22 22 21 20 20 20 19 17 17 18 20 21 22 22 22 21 21 22 22 22 23 23 23 22 22 22 23 23 24 24 24 24 23 23 24 23 23 21 18 17 17 18 19 19 20 23 26 29 30 32 33 34 34 35 35 36 39 41 42 43 43 43 43 42 41 41 41 41 42 42 43 44 44 44 44 44 44 44 44 45 45 45
26 25 25 25 25 22 21 21 20 20 19 18 18 19 21 22 23 22 22 21 22 23 23 23 23 23 23 22 22 23 24 24 24 24 24 24 24 24 24 25 24 22 20 19 18 18 18 19 22 25 28 30 33 34 35 35 35 35 37 39 42 43 43 44 43 42 42 41 41 41 41 42 42 44 44 44 44 44 44 45 44 44 44 45 44
30 29 28 28 27 24 23 23 22 21 20 19 20 20 20 21 23 23 22 22 22 23 23 22 23 24 24 23 23 24 24 24 25 25 25 25 25 25 25 25 26 26 24 22 21 20 19 20 21 24 26 28 31 33 34 35 35 36 37 39 42 43 44 43 42 42 42 42 42 41 42 42 43 44 45 45 45 44 44 45 44 44 44 45 44
31 30 30 30 29 26 25 24 23 23 21 21 21 21 21 21 23 23 23 22 22 23 23 23 23 23 24 24 23 24 24 24 25 25 25 25 25 25 25 26 27 27 27 26 24 23 22 21 21 24 25 27 30 32 33 34 35 36 38 39 42 43 43 43 42 42 43 42 42 42 42 42 43 44 45 45 45 45 45 45 44 44 44 45 44
31 32 31 31 29 27 26 25 25 25 23 22 23 23 22 21 22 23 23 23 23 24 24 23 23 24 24 24 24 24 25 25 25 26 26 26 26 26 26 26 27 28 28 28 27 26 25 24 24 25 26 27 30 31 32 33 35 37 39 40 41 42 42 42 42 43 43 43 42 42 42 42 43 44 45 45 45 45 45 45 44 43 44 44 44
33 33 32 31 31 29 27 26 26 27 25 22 23 24 23 22 22 23 23 23 24 25 25 25 24 24 24 24 24 25 25 25 26 27 27 27 27 27 27 27 27 28 29 29 29 28 28 27 27 27 28 29 30 31 30 32 35 38 39 40 41 41 41 41 42 43 43 43 43 42 43 43 43 44 45 45 45 45 46 45 44 43 43 44 44
34 34 33 33 32 31 29 28 28 28 26 24 24 25 24 23 22 23 22 23 24 25 26 26 25 24 24 25 25 25 26 26 26 27 28 27 27 27 28 28 28 28 28 29 29 29 29 29 29 29 30 30 31 30 29 31 35 38 40 40 40 41 40 40 41 43 44 44 44 43 43 43 43 44 45 45 45 45 46 45 44 43 43 44 43
36 35 34 34 33 33 32 30 29 29 28 25 26 26 25 24 23 23 23 23 24 25 26 26 26 25 25 25 25 26 26 27 27 28 28 28 28 28 28 29 29 29 29 29 29 29 29 30 30 30 31 32 32 31 30 32 35 39 40 40 40 40 40 40 42 43 45 45 44 43 42 43 43 45 45 45 45 46 47 46 44 43 43 44 44
37 37 36 35 35 35 34 32 31 30 29 27 27 27 26 25 24 24 24 23 24 25 26 27 27 25 25 25 26 26 27 28 28 28 28 29 29 29 30 29 29 29 29 30 30 30 30 30 31 31 32 33 33 32 31 32 36 39 40 40 39 39 39 40 42 44 45 45 45 43 43 43 44 44 45 45 45 46 47 46 44 43 43 44 44
39 38 37 37 37 36 35 34 32 31 30 29 28 28 27 26 25 24 25 25 25 25 26 27 27 25 25 25 26 26 27 28 29 29 29 29 30 30 30 29 29 29 29 30 31 31 31 31 31 31 32 34 34 33 32 33 36 39 40 39 39 39 38 39 41 43 44 45 45 45 44 43 44 44 45 45 45 46 48 47 45 43 43 44 44
41 39 39 39 39 38 36 35 35 33 31 30 30 30 28 27 26 25 25 26 26 25 26 27 26 25 24 26 26 26 26 28 29 29 29 29 30 30 30 29 28 28 29 30 31 32 32 32 32 32 33 35 35 34 33 33 35 38 40 40 40 39 39 40 41 42 44 45 46 46 45 44 44 44 45 46 46 47 48 47 46 44 43 44 44
40 40 40 39 40 39 37 37 37 36 33 31 31 31 30 28 27 26 26 27 27 26 26 26 26 24 24 25 26 26 26 27 29 29 29 29 30 30 29 29 29 29 29 30 31 33 33 33 33 33 33 35 36 36 35 34 35 38 39 40 41 40 41 42 42 42 43 44 45 45 45 45 44 44 45 46 46 47 48 48 46 44 43 43 43
40 40 40 39 39 39 39 39 39 39 36 33 32 32 31 29 28 27 27 28 28 28 26 26 25 24 23 24 26 27 27 28 29 29 29 29 30 30 30 29 30 30 30 30 31 33 34 34 33 33 33 34 35 36 36 35 36 38 39 40 40 41 41 42 42 42 42 43 44 45 45 45 45 45 46 46 47 48 49 49 47 46 44 43 43
40 40 40 39 38 38 40 40 40 40 39 36 34 34 33 30 29 29 28 28 29 29 27 26 25 24 23 24 25 27 28 28 30 30 30 30 30 30 29 29 29 29 30 30 31 32 34 34 34 33 32 33 34 36 37 36 37 39 40 40 40 40 41 41 42 42 42 43 44 44 45 45 45 45 46 46 47 48 49 49 49 47 45 44 43
42 41 41 39 38 38 39 40 40 41 40 38 36 35 34 31 30 30 29 28 29 29 28 27 26 25 24 24 25 26 27 28 29 30 30 30 30 30 29 29 29 29 29 30 31 32 34 35 34 33 32 32 34 35 36 37 38 39 41 41 41 41 42 42 42 42 42 42 43 44 45 45 45 45 46 47 48 49 49 50 51 49 46 44 43
44 43 42 40 39 39 39 39 40 40 41 40 38 36 35 33 31 31 30 29 29 30 29 27 27 26 25 24 24 25 26 27 29 30 30 30 30 29 29 29 29 29 30 31 32 33 34 35 35 33 32 31 33 34 36 38 39 40 41 41 41 42 42 43 44 44 42 42 44 45 46 45 45 46 46 47 49 50 50 52 52 49 46 43 42
45 44 43 42 42 40 39 39 40 40 41 40 39 38 36 33 32 32 31 29 29 30 29 28 28 27 26 25 24 25 26 27 28 30 30 30 30 29 30 30 30 30 30 32 33 33 34 35 35 34 32 31 31 34 37 39 40 40 41 41 41 41 42 43 45 44 42 42 43 45 46 46 45 46 47 48 50 51 51 52 52 49 46 43 42
45 45 44 45 44 42 40 40 40 40 40 40 41 41 38 34 34 33 32 30 29 30 30 29 28 28 27 26 24 24 25 26 28 30 31 30 30 30 30 31 31 30 32 33 34 34 35 35 36 36 34 31 31 34 37 39 39 40 42 42 41 41 41 43 45 44 42 42 43 45 46 46 45 46 48 49 50 52 52 52 51 49 46 43 42
45 47 46 46 47 44 43 42 42 41 41 41 43 44 40 36 35 35 33 31 30 30 31 30 29 28 28 27 25 24 25 27 28 30 31 31 30 30 30 31 31 31 32 34 34 35 35 35 37 37 35 33 32 34 37 38 39 40 42 42 42 41 42 43 45 43 42 42 43 44 45 45 45 46 48 50 51 52 52 51 50 48 45 43 42
47 49 48 48 48 47 46 45 43 42 42 43 45 45 41 38 37 36 34 33 32 30 31 31 29 28 28 28 26 24 26 27 28 29 31 31 30 31 31 31 32 32 33 34 35 35 35 36 37 37 36 35 35 36 38 38 39 41 42 42 42 41 42 44 44 42 41 42 43 43 44 45 45 46 49 50 52 53 52 51 50 48 45 43 42
51 51 50 49 49 49 50 48 45 44 43 44 47 46 42 40 39 38 36 35 34 32 32 33 30 28 28 29 27 26 26 28 28 29 30 30 30 31 31 31 32 32 33 33 34 36 36 37 37 36 35 36 37 38 39 39 40 42 42 43 42 41 42 44 42 41 41 42 43 42 43 44 45 46 48 50 52 52 51 51 50 48 45 43 43
53 52 51 50 49 50 51 50 49 46 44 45 48 46 43 41 41 40 38 37 36 33 33 33 31 28 27 28 29 28 27 28 30 30 30 29 29 30 31 31 32 32 32 33 34 35 36 37 36 35 35 37 39 39 40 40 41 42 43 42 41 40 42 42 40 40 41 42 42 42 42 43 44 46 48 50 51 51 51 51 50 48 46 45 44
56 54 53 52 50 49 50 51 52 50 47 47 48 46 44 43 42 41 39 38 38 35 33 34 32 28 27 28 29 30 29 29 30 31 31 29 28 30 31 31 32 32 32 33 34 35 36 37 36 35 36 38 40 39 40 40 40 42 42 41 39 40 41 40 38 39 40 41 41 41 41 42 44 45 47 49 49 50 50 50 49 47 46 45 44
59 56 54 53 52 50 50 51 53 52 49 48 48 47 45 44 44 43 41 40 39 36 34 35 32 28 27 27 29 31 30 28 30 32 31 30 29 30 31 32 33 32 32 33 34 35 36 36 36 36 38 40 39 38 38 38 39 41 41 39 39 41 40 38 37 39 40 40 40 40 40 41 43 44 46 47 48 49 49 49 48 46 45 44 44
60 57 55 54 53 52 52 52 52 53 51 49 48 47 46 45 45 44 43 42 41 37 35 35 33 29 27 27 28 31 30 28 29 31 32 31 30 30 31 33 33 33 33 34 34 34 34 36 37 38 40 40 39 37 37 37 38 40 39 39 40 40 38 37 37 39 39 39 39 39 39 41 42 43 45 46 47 48 48 47 46 45 45 44 44
61 59 56 56 55 54 52 52 53 54 53 51 49 48 47 47 46 46 45 44 42 39 35 35 33 30 27 27 28 30 30 29 29 31 32 32 31 31 32 33 33 34 35 35 36 36 36 37 39 40 41 41 39 36 36 36 38 38 38 39 40 39 37 36 37 38 39 39 38 38 39 40 42 43 44 45 46 47 47 46 45 45 44 44 43
Wind_Direction
271 281 290 299 304 310 318 324 330 331 328 327 327 329 329 330 331 330 329 325 328 340 344 343 342 338 342 342 345 347 335 330 333 338 342 337 336 338 338 338 336 335 335 334 335 333 332 331 331 331 331 330 329 328 327 325 325 324 325 325 327 329 330 330 330 329 329 329 329 329 329 329 329 329 328 327 325 323 321 319 319 321 322 322 322
280 287 297 304 309 316 326 331 332 333 332 330 329 331 332 332 332 330 327 325 331 338 336 332 332 335 341 340 342 344 337 331 329 334 339 335 336 338 337 336 334 335 337 335 335 335 335 334 333 333 333 331 329 328 326 325 326 327 329 331 332 333 333 332 332 331 330 331 331 330 329 329 328 327 327 326 324 321 318 317 318 320 321 323 323
287 293 301 309 316 324 333 337 337 337 336 334 333 333 334 335 333 330 328 330 332 330 327 327 330 332 335 337 340 338 333 331 328 331 335 333 334 336 335 334 335 337 336 335 336 337 336 334 334 334 333 330 328 327 326 328 330 332 334 335 336 335 335 334 333 333 332 332 331 330 328 327 326 326 325 325 323 320 317 317 318 320 322 323 323
289 297 306 316 324 332 341 346 345 342 339 336 336 335 337 338 332 328 329 331 327 325 327 329 329 331 333 337 338 334 331 332 330 328 331 334 333 333 334 334 335 336 334 334 337 337 335 335 334 333 331 329 328 328 329 332 335 336 337 337 337 336 336 335 334 333 333 331 330 329 327 326 326 326 325 325 324 321 319 319 320 322 323 324 324
291 297 306 321 333 339 343 347 346 342 338 335 335 338 340 338 331 328 329 328 325 325 328 328 329 330 332 333 332 331 329 330 330 324 326 332 331 329 330 333 334 333 333 335 337 335 334 334 332 331 330 330 330 331 333 336 337 337 337 338 337 337 336 335 334 333 331 330 329 328 327 326 326 326 326 326 324 322 320 321 323 324 324 324 324
286 296 305 317 329 335 338 340 339 335 333 332 336 340 339 334 331 331 332 330 328 326 325 326 329 329 328 328 326 326 327 329 329 322 321 326 328 327 327 331 332 330 332 334 334 334 333 333 331 330 332 331 332 333 335 337 337 337 337 338 337 336 335 334 333 331 330 329 328 327 326 326 326 326 326 326 324 322 321 322 324 325 325 324 323
282 292 300 309 318 326 331 334 332 330 329 332 338 341 336 333 333 334 333 329 327 326 324 324 325 326 326 326 325 327 327 327 327 321 320 323 327 327 325 329 330 327 329 332 335 336 334 331 330 332 333 333 333 334 335 336 336 337 337 337 337 336 335 333 332 331 329 328 326 326 326 326 326 326 326 325 324 323 322 323 324 324 324 324 323
276 285 294 304 315 324 328 329 327 327 329 334 338 338 334 334 334 332 331 326 323 323 323 323 324 325 325 326 327 328 327 326 323 319 320 323 326 326 326 330 330 326 331 338 339 336 330 329 330 332 333 333 333 334 335 335 335 336 337 337 336 335 334 333 332 330 329 327 327 326 326 327 327 327 326 325 324 323 322 323 323 324 324 324 322
266 275 291 305 314 324 326 325 326 326 330 335 337 335 334 335 333 331 331 326 322 322 322 324 324 324 324 324 326 327 325 325 323 319 320 322 325 327 327 331 332 329 335 342 336 328 325 327 331 333 333 333 333 334 335 335 334 335 336 335 335 334 333 332 331 330 329 328 327 327 327 327 327 327 326 326 325 323 322 322 323 324 324 324 322
267 274 289 303 312 321 324 324 325 327 331 335 335 335 334 333 333 331 331 328 325 324 323 324 324 324 325 324 325 326 325 325 323 319 319 323 325 328 325 327 331 326 326 330 326 322 323 327 332 333 333 332 332 334 335 333 333 334 334 334 333 333 332 331 330 329 329 328 328 327 327 327 327 326 326 325 324 323 322 323 324 325 325 324 322
268 277 286 299 308 317 320 322 324 326 332 335 333 334 333 333 334 333 331 329 327 325 323 323 323 324 323 322 323 325 324 324 321 316 317 323 325 326 324 320 321 315 314 319 322 323 325 327 331 333 332 331 332 333 332 331 332 333 333 332 332 332 331 331 330 330 329 329 328 327 327 327 326 326 325 325 324 323 323 325 325 325 324 323 320
266 275 282 294 304 311 316 320 324 327 331 334 333 332 332 333 336 334 330 327 326 325 321 320 320 321 320 319 321 323 322 321 319 314 314 323 323 321 321 315 312 311 314 319 322 326 328 327 328 330 330 330 331 330 330 331 331 332 332 331 330 331 330 331 330 330 329 328 327 327 326 327 327 326 325 325 324 324 325 325 325 324 323 321 319
263 272 280 290 299 306 312 318 324 327 330 334 334 332 331 333 335 334 330 327 326 325 322 319 318 318 317 318 321 322 319 319 320 317 317 324 323 318 319 319 320 323 321 319 320 323 326 327 326 327 329 330 330 330 330 330 330 331 331 329 330 330 330 330 331 330 329 328 327 327 327 328 328 327 327 326 326 325 325 325 324 324 322 321 319
259 267 277 285 293 299 307 315 321 325 328 332 334 332 332 334 335 334 331 328 326 326 325 322 318 316 315 318 320 318 315 317 321 321 320 321 322 320 321 322 321 324 324 320 318 319 320 323 325 325 327 330 330 330 329 328 328 331 331 329 329 330 330 331 331 330 329 327 327 327 328 329 328 328 328 327 327 326 326 326 325 325 324 323 321
256 259 271 279 286 294 302 310 317 321 323 327 333 334 332 334 335 334 332 329 327 326 325 321 317 314 314 316 316 313 313 315 319 321 320 318 319 319 321 321 318 318 322 322 319 317 315 317 321 323 325 328 329 328 327 325 327 331 331 329 329 330 330 330 330 329 328 327 328 328 329 329 329 328 328 328 328 328 327 327 327 326 326 324 323
257 259 266 276 282 289 297 305 311 316 318 321 328 333 332 331 333 332 331 331 330 326 320 317 316 314 313 315 315 312 312 314 316 319 318 316 316 316 316 317 313 314 320 324 320 315 313 313 317 321 323 326 327 326 325 323 325 330 330 328 328 329 329 329 330 329 328 328 329 329 330 329 329 329 329 329 329 328 328 328 328 328 327 326 324
256 264 270 275 279 285 292 299 305 312 316 317 323 330 331 329 330 331 330 331 330 324 318 315 315 316 315 314 314 312 312 314 315 316 317 316 316 314 312 313 313 314 318 322 320 316 313 313 317 321 323 325 324 324 324 322 324 328 329 327 327 327 328 329 330 330 329 329 330 330 330 329 330 330 329 329 329 329 329 329 329 328 327 326 325
255 268 274 275 278 282 288 295 302 310 316 317 319 326 329 327 328 330 330 329 329 324 318 315 315 316 316 314 314 313 311 312 313 314 317 317 314 309 306 309 313 313 313 315 315 313 312 315 318 322 324 324 323 324 323 322 324 328 328 326 326 326 327 329 331 330 329 329 330 330 330 330 330 330 329 329 329 329 330 329 329 328 328 327 326
262 275 280 280 280 281 286 293 300 308 315 317 318 322 326 325 325 327 328 327 326 326 320 315 314 315 316 315 314 312 310 310 311 313 315 314 311 307 306 307 309 309 308 308 309 308 309 315 319 321 323 323 323 324 323 322 325 327 327 326 326 325 325 327 330 330 329 330 331 331 331 331 331 330 329 330 330 330 330 330 329 329 329 328 327
272 283 287 287 283 281 284 291 296 304 312 316 317 320 323 323 322 323 326 325 324 324 321 316 314 314 316 315 313 311 308 308 309 309 309 309 309 308 307 309 311 311 308 305 307 308 309 314 317 319 323 323 324 326 324 324 327 328 328 327 325 323 322 324 327 329 330 331 331 331 331 331 331 330 330 331 331 331 331 330 330 330 330 329 328
277 287 291 292 286 280 281 287 293 298 308 316 317 319 323 323 320 321 324 324 322 322 321 317 313 313 314 313 312 309 308 308 308 307 306 306 307 307 307 308 310 311 311 307 306 308 309 312 315 318 322 324 324 326 325 326 329 328 328 327 324 322 320 321 324 328 330 331 331 331 331 331 331 331 331 332 332 332 331 331 331 331 331 330 329
276 285 291 293 288 280 277 283 289 293 305 316 317 319 324 325 321 319 322 323 322 321 321 319 315 312 311 311 311 310 308 308 308 306 305 304 304 304 305 306 307 309 310 306 305 308 311 313 315 318 322 324 324 324 324 326 327 327 328 328 326 324 322 321 323 327 329 330 330 330 331 332 332 332 332 332 332 332 332 332 332 332 331 330 329
272 281 288 290 286 278 273 280 285 289 303 314 317 319 324 326 323 318 319 321 321 321 322 321 318 313 311 311 311 310 308 307 307 307 306 305 304 302 303 304 306 307 306 306 309 313 314 314 315 319 322 324 324 323 323 324 325 326 329 330 328 327 326 324 325 327 328 329 329 330 332 332 332 332 333 333 333 333 333 333 333 332 331 331 330
267 276 285 288 285 276 270 278 283 287 300 311 315 318 322 326 324 319 317 318 319 319 320 320 320 316 313 311 311 309 308 307 308 308 308 307 305 304 304 304 305 306 305 308 312 315 315 315 317 319 320 323 324 324 325 325 324 326 329 329 329 329 328 326 326 327 328 329 329 331 332 332 333 333 333 333 333 333 333 333 333 332 331 331 330
261 272 285 289 286 275 268 275 282 286 296 305 312 318 321 324 325 320 316 316 317 317 317 318 319 318 314 311 310 309 308 308 309 309 308 307 305 305 306 306 307 307 306 307 309 310 312 314 315 316 317 321 324 325 327 326 325 327 329 328 327 328 328 327 327 327 328 329 330 332 333 333 333 333 333 333 334 334 333 333 333 332 331 331 331
259 272 283 286 285 276 268 272 279 283 290 299 307 314 320 322 323 320 315 314 316 316 316 317 319 319 315 311 310 309 309 309 310 310 308 307 306 306 308 309 311 311 309 306 305 305 307 310 312 313 317 322 324 325 327 327 326 328 328 327 327 328 328 328 328 328 329 330 331 332 333 333 333 333 334 334 334 333 333 333 333 332 332 331 331
259 271 278 280 281 275 267 268 274 280 286 293 300 309 317 321 322 319 315 312 313 315 315 317 319 319 316 312 310 309 309 309 309 308 307 306 306 307 309 310 312 313 312 309 306 306 307 309 312 314 318 322 323 323 326 328 327 327 327 327 327 329 330 329 329 329 330 331 332 332 333 333 334 334 334 334 333 333 333 333 333 332 331 332 332
261 270 273 275 275 271 265 265 270 276 283 289 294 302 313 320 321 319 314 311 310 312 314 316 317 318 316 313 310 308 308 308 308 306 305 305 305 306 308 310 312 313 312 311 310 310 311 311 313 314 317 320 320 321 325 327 327 327 327 327 327 329 331 330 329 330 331 332 332 332 333 333 334 334 333 333 333 333 333 333 332 331 332 332 333
264 269 270 271 270 265 261 262 267 273 279 286 291 297 307 317 321 318 313 309 308 309 313 314 314 315 316 314 311 308 308 307 307 305 303 303 304 306 307 309 311 312 313 313 314 315 315 315 315 314 316 319 319 321 326 327 326 326 327 327 328 330 331 330 330 330 331 332 332 332 333 333 333 333 333 333 333 333 333 333 332 331 332 332 333
264 265 267 268 266 262 260 260 264 270 275 283 288 293 302 313 319 318 313 308 306 306 310 313 312 313 314 314 312 308 308 307 306 304 304 304 305 306 307 309 310 311 313 316 318 319 318 318 317 316 317 319 321 324 328 327 325 326 328 328 329 330 331 331 330 331 332 332 331 332 332 333 333 333 333 333 332 332 332 332 331 331 332 332 333
260 261 264 264 262 261 260 258 261 267 272 279 285 290 298 308 316 318 312 307 305 305 307 310 310 310 312 314 312 309 307 307 306 306 306 306 305 306 307 308 310 312 315 317 319 320 319 318 317 318 319 321 323 327 329 327 325 326 328 329 330 331 332 331 331 331 332 331 331 332 332 333 333 332 332 332 332 332 332 331 330 330 332 332 332
256 257 260 260 261 262 262 258 258 264 269 275 281 286 294 302 311 316 313 306 304 303 304 306 308 308 309 311 311 308 307 307 308 309 308 307 305 305 306 308 311 314 317 318 318 318 318 317 317 318 320 322 324 327 329 327 326 327 329 330 331 332 332 332 331 332 332 331 331 331 332 333 332 331 331 332 332 332 331 330 330 330 331 332 332
251 253 255 258 261 262 262 257 255 260 267 272 277 283 290 298 306 313 313 307 303 302 302 303 305 305 306 308 309 308 308 307 308 309 309 308 306 305 307 310 312 315 317 316 316 316 316 316 316 318 321 322 324 327 329 328 327 328 330 331 332 333 333 332 331 332 332 331 330 330 331 333 332 331 331 332 331 331 331 330 330 330 331 331 332
246 249 252 255 258 260 260 257 254 256 262 268 273 279 286 293 301 308 311 309 304 302 301 301 302 303 304 305 307 309 309 308 308 310 310 309 307 307 309 312 313 314 315 314 314 314 316 316 316 318 320 320 322 327 330 330 328 328 330 332 332 333 333 331 331 332 332 330 329 329 331 332 332 331 331 331 331 330 330 330 329 330 330 331 331
243 246 249 251 253 256 260 259 254 254 258 264 269 275 282 289 296 303 308 308 305 303 301 299 300 301 302 303 306 309 310 309 308 310 311 309 309 309 310 311 311 311 311 312 313 313 315 316 317 318 319 319 322 327 330 330 328 328 330 332 333 333 333 331 331 332 331 329 327 328 331 333 332 331 331 330 331 331 331 330 329 329 330 330 330
242 245 247 248 249 253 260 261 257 254 256 261 266 271 278 285 291 298 305 306 305 305 302 299 298 300 301 302 304 307 309 308 307 308 310 309 309 309 310 309 309 308 309 312 313 314 316 318 318 318 318 319 321 325 328 328 328 328 330 331 333 334 333 332 332 331 330 328 327 327 331 333 332 331 330 330 331 331 331 330 330 329 328 328 329
242 246 248 247 248 253 258 259 258 256 254 258 264 269 275 281 287 294 300 304 304 305 302 298 298 299 300 300 302 305 307 307 306 307 309 308 309 310 310 310 309 309 311 314 315 315 317 318 317 317 317 318 320 323 325 327 327 329 330 331 333 333 332 332 332 331 329 328 327 327 330 332 331 331 330 330 331 331 330 330 330 328 327 327 328
244 247 250 250 250 253 255 254 255 255 255 256 261 267 272 278 283 289 296 301 302 303 302 299 297 298 298 298 300 302 304 305 305 307 308 308 309 311 311 311 311 312 314 317 317 317 317 317 317 316 316 318 319 320 323 325 326 328 330 331 332 332 332 332 332 331 330 328 327 328 330 331 331 331 331 331 331 331 330 330 330 328 326 326 327
245 248 250 251 250 250 251 251 252 253 254 255 259 264 269 275 280 286 291 297 300 301 301 298 296 296 296 296 298 300 302 304 306 307 308 308 310 311 312 311 311 313 316 318 319 319 319 319 317 316 316 317 318 319 321 322 325 328 330 330 331 331 332 331 331 331 331 329 328 328 329 331 331 331 331 330 331 331 330 330 330 328 326 325 326
245 246 247 248 248 248 249 249 250 251 253 255 258 262 267 272 277 281 287 294 298 299 300 298 296 295 294 294 295 297 299 303 305 306 308 308 308 310 310 309 310 312 316 319 320 322 324 323 320 317 316 317 317 317 318 319 323 328 329 329 329 330 330 330 330 331 331 329 328 328 329 331 331 331 331 330 330 330 330 330 330 328 325 324 325
245 246 247 248 248 248 248 248 248 250 253 255 259 261 264 269 273 277 284 291 295 296 298 297 295 294 293 292 293 294 297 300 303 305 306 306 306 307 307 308 309 312 316 319 320 323 326 328 325 320 315 315 315 315 316 317 322 326 327 328 328 329 329 329 330 330 330 329 329 328 329 331 331 332 332 331 331 330 331 331 330 328 326 324 326
246 246 247 249 249 248 247 246 247 249 252 256 259 261 262 266 270 274 281 287 291 293 295 295 295 294 292 291 292 294 295 297 299 302 304 305 304 304 305 306 308 311 315 317 319 321 325 327 328 324 317 314 315 315 314 315 319 324 326 327 327 328 328 329 329 329 330 330 329 329 329 331 332 333 332 332 331 331 332 331 330 328 327 326 327
246 245 247 248 249 249 247 246 247 249 252 255 258 261 261 263 267 272 278 284 286 289 292 293 293 293 291 291 292 294 294 295 296 298 301 303 304 304 303 304 306 310 313 315 317 320 323 325 326 325 320 315 315 314 311 312 317 322 325 326 326 326 326 327 327 328 329 329 329 329 329 331 333 333 332 332 331 331 332 331 330 329 328 327 328
248 245 246 246 248 250 248 247 248 251 253 254 256 259 260 262 265 269 275 281 283 285 288 290 291 291 290 290 292 294 294 293 293 295 297 301 304 304 303 303 305 307 310 313 315 318 321 323 324 324 322 318 314 311 309 311 316 321 324 325 325 324 324 325 326 327 328 329 330 329 329 331 333 333 332 332 331 331 332 331 331 331 329 329 329
250 247 245 244 245 249 249 249 250 251 253 254 255 258 260 261 264 267 274 279 281 283 285 286 288 289 289 289 292 293 292 291 291 292 294 299 303 305 304 303 303 305 308 311 313 314 316 319 321 323 322 319 314 309 307 310 315 320 323 324 324 323 322 323 325 327 328 330 330 330 330 331 333 334 333 332 331 332 332 332 332 332 330 329 329
249 247 246 244 243 245 249 251 252 252 253 253 254 257 259 260 262 266 271 276 279 282 283 283 285 287 287 288 290 291 290 289 289 290 292 297 302 304 304 303 302 304 305 307 309 311 313 316 319 321 320 318 314 309 307 308 313 319 322 323 323 322 321 322 325 326 328 330 330 330 330 332 333 334 333 332 332 332 332 332 333 332 331 330 331
247 246 246 245 244 244 246 250 252 253 254 254 253 255 257 259 260 264 269 274 278 280 281 281 281 283 284 286 288 288 287 287 288 289 291 295 299 302 303 303 302 302 303 304 306 308 311 314 317 318 319 317 314 310 307 309 313 318 321 322 322 320 319 321 324 325 327 330 329 329 331 333 333 334 333 332 332 332 332 333 333 333 333 333 334
245 245 245 244 245 246 246 248 250 251 253 254 252 253 256 257 257 261 267 272 276 278 279 278 279 280 281 282 285 286 285 286 287 288 290 294 297 299 300 301 301 301 301 302 303 305 309 311 312 314 317 317 314 310 308 309 314 318 320 321 320 318 318 321 323 325 328 330 329 330 332 333 333 334 334 332 332 332 332 333 334 335 334 334 335
243 244 244 244 246 248 248 248 249 250 252 254 253 252 254 255 256 260 266 270 273 275 276 276 277 278 278 279 282 284 284 285 286 287 290 292 293 295 297 298 300 301 301 300 301 303 306 307 307 310 315 316 314 309 306 309 314 317 319 320 318 317 318 321 324 326 329 330 329 331 333 333 333 334 334 332 332 333 333 334 335 335 335 335 335
243 243 243 244 246 248 248 248 249 250 250 252 252 251 252 253 255 259 264 268 271 273 273 274 274 275 276 278 280 281 283 285 285 286 289 290 291 292 294 296 299 300 300 298 299 301 302 303 305 308 312 313 312 307 304 309 314 316 317 317 316 316 319 322 325 327 329 329 330 331 333 333 333 334 334 333 333 333 334 335 336 336 335 335 335
243 243 243 243 244 246 246 247 249 249 249 250 250 249 249 252 255 259 263 266 269 271 271 272 273 274 275 275 277 279 282 284 284 285 286 287 289 291 293 295 298 297 297 297 298 298 300 302 305 307 309 311 309 304 304 310 314 315 316 315 314 316 319 323 326 328 328 329 330 331 332 333 333 334 334 334 334 334 334 336 337 337 336 334 334
Height
5885 5884 5884 5883 5883 5882 5881 5880 5879 5878 5877 5876 5876 5875 5874 5873 5873 5872 5872 5871 5871 5871 5870 5869 5869 5868 5867 5866 5865 5864 5864 5862 5862 5861 5861 5860 5859 5858 5857 5856 5855 5855 5854 5854 5853 5853 5852 5851 5850 5849 5848 5847 5846 5845 5844 5842 5841 5839 5837 5836 5835 5833 5832 5830 5829 5827 5825 5823 5821 5819 5817 5815 5813 5811 5809 5807 5804 5802 5799 5797 5794 5792 5789 5787 5784
5884 5883 5883 5883 5882 5881 5880 5879 5878 5877 5877 5876 5875 5874 5873 5873 5872 5871 5870 5870 5870 5870 5869 5869 5869 5867 5866 5865 5864 5863 5862 5861 5860 5860 5860 5858 5857 5856 5855 5855 5854 5853 5853 5852 5852 5851 5851 5850 5849 5848 5847 5845 5844 5843 5842 5841 5839 5837 5836 5834 5833 5831 5830 5828 5827 5825 5823 5821 5819 5817 5815 5813 5811 5808 5806 5803 5801 5798 5796 5793 5791 5788 5786 5783 5780
5882 5882 5882 5882 5881 5880 5879 5878 5877 5877 5876 5875 5874 5873 5873 5872 5871 5870 5869 5869 5869 5869 5869 5868 5867 5866 5864 5864 5863 5862 5862 5861 5859 5859 5858 5857 5855 5855 5854 5854 5853 5852 5851 5851 5850 5850 5849 5848 5847 5846 5845 5844 5843 5842 5841 5839 5837 5836 5834 5832 5831 5829 5828 5826 5825 5823 5821 5819 5816 5814 5812 5810 5808 5805 5803 5800 5797 5795 5792 5790 5787 5785 5782 5779 5776
5881 5881 5881 5880 5880 5879 5878 5877 5876 5876 5875 5875 5874 5873 5872 5872 5871 5869 5869 5868 5868 5867 5867 5866 5865 5864 5863 5862 5862 5861 5861 5860 5858 5857 5857 5856 5854 5853 5853 5852 5851 5851 5850 5850 5849 5848 5848 5847 5846 5845 5844 5843 5842 5840 5839 5837 5836 5834 5832 5831 5829 5827 5826 5824 5822 5820 5818 5816 5814 5812 5809 5807 5804 5802 5799 5797 5794 5791 5788 5786 5783 5781 5778 5775 5772
5880 5880 5880 5879 5878 5878 5877 5877 5876 5876 5875 5875 5874 5873 5872 5871 5869 5868 5868 5867 5866 5865 5865 5864 5863 5863 5862 5862 5860 5859 5859 5858 5857 5855 5855 5855 5853 5852 5852 5851 5850 5849 5849 5848 5848 5847 5847 5846 5844 5844 5843 5842 5840 5839 5837 5836 5834 5832 5830 5829 5827 5825 5823 5821 5819 5817 5815 5813 5811 5809 5806 5804 5801 5798 5796 5793 5790 5788 5785 5782 5780 5777 5774 5771 5768
5879 5879 5879 5878 5878 5877 5876 5876 5876 5876 5875 5874 5874 5872 5870 5869 5868 5867 5867 5866 5865 5864 5863 5863 5862 5861 5860 5860 5860 5859 5858 5857 5856 5855 5853 5853 5852 5851 5850 5850 5849 5848 5848 5847 5847 5846 5845 5844 5843 5842 5841 5840 5839 5837 5836 5834 5832 5830 5829 5827 5825 5823 5821 5819 5817 5815 5813 5810 5808 5806 5803 5801 5798 5795 5792 5790 5787 5784 5782 5779 5776 5773 5770 5767 5765
5877 5877 5877 5877 5877 5876 5875 5875 5875 5875 5874 5874 5872 5870 5868 5867 5866 5865 5865 5864 5863 5863 5862 5861 5860 5859 5859 5858 5858 5857 5857 5856 5856 5854 5852 5851 5851 5850 5849 5848 5848 5847 5847 5846 5845 5844 5843 5843 5842 5841 5839 5838 5837 5835 5834 5832 5830 5829 5827 5825 5823 5821 5819 5817 5815 5813 5810 5808 5806 5803 5801 5798 5795 5792 5789 5787 5784 5781 5778 5776 5773 5770 5767 5764 5761
5876 5876 5876 5875 5875 5874 5874 5873 5873 5873 5873 5872 5871 5868 5866 5866 5865 5864 5863 5863 5861 5860 5860 5860 5859 5858 5857 5857 5856 5856 5855 5855 5854 5853 5852 5851 5849 5848 5846 5846 5845 5845 5845 5844 5842 5842 5842 5841 5840 5839 5838 5836 5835 5833 5832 5830 5828 5827 5825 5823 5821 5819 5817 5815 5813 5810 5808 5806 5803 5801 5798 5795 5792 5789 5786 5784 5781 5778 5775 5772 5769 5767 5764 5761 5758
5874 5875 5874 5874 5873 5873 5872 5872 5872 5872 5871 5871 5869 5866 5865 5865 5864 5862 5861 5861 5860 5859 5858 5858 5857 5856 5856 5856 5855 5854 5854 5853 5853 5851 5851 5850 5849 5847 5845 5844 5843 5842 5842 5842 5841 5841 5841 5840 5839 5837 5836 5834 5832 5831 5830 5828 5826 5825 5823 5821 5819 5817 5815 5813 5810 5808 5806 5803 5801 5798 5795 5792 5789 5786 5783 5780 5777 5775 5772 5769 5766 5763 5760 5757 5754
5873 5873 5873 5872 5872 5872 5871 5871 5871 5870 5870 5870 5867 5864 5863 5863 5862 5860 5859 5859 5858 5857 5857 5856 5855 5855 5854 5854 5853 5853 5852 5851 5850 5849 5849 5848 5847 5846 5845 5844 5843 5841 5840 5841 5841 5840 5839 5838 5837 5835 5834 5832 5830 5829 5828 5826 5824 5823 5821 5819 5817 5815 5813 5811 5808 5806 5803 5801 5798 5795 5792 5789 5786 5783 5780 5777 5774 5771 5769 5766 5763 5759 5756 5753 5750
5872 5872 5871 5871 5870 5870 5870 5870 5869 5868 5868 5868 5866 5864 5862 5861 5861 5859 5858 5857 5856 5856 5855 5855 5854 5853 5852 5852 5851 5851 5850 5850 5849 5848 5847 5847 5845 5845 5844 5844 5843 5842 5839 5839 5839 5839 5837 5836 5835 5834 5833 5831 5829 5827 5826 5824 5822 5821 5819 5817 5814 5812 5810 5808 5806 5804 5801 5798 5795 5792 5789 5786 5783 5780 5777 5774 5771 5768 5765 5762 5759 5756 5753 5750 5747
5870 5870 5870 5870 5869 5869 5869 5868 5867 5866 5866 5866 5865 5863 5862 5860 5860 5858 5857 5856 5855 5855 5854 5854 5853 5852 5851 5851 5850 5849 5848 5848 5848 5846 5846 5845 5844 5844 5844 5843 5843 5842 5839 5836 5836 5836 5835 5834 5833 5832 5831 5830 5828 5826 5824 5822 5821 5819 5817 5815 5812 5810 5808 5806 5804 5801 5798 5796 5792 5789 5786 5783 5780 5777 5774 5771 5768 5765 5762 5759 5756 5752 5749 5746 5744
5868 5868 5868 5868 5868 5867 5867 5867 5866 5864 5864 5864 5863 5862 5861 5860 5859 5857 5856 5855 5854 5854 5853 5852 5852 5851 5850 5849 5848 5847 5846 5846 5846 5845 5843 5843 5842 5841 5841 5840 5840 5840 5838 5835 5833 5833 5833 5833 5831 5830 5830 5828 5826 5824 5821 5820 5819 5818 5816 5813 5810 5808 5806 5803 5801 5798 5796 5793 5790 5786 5783 5780 5776 5774 5771 5768 5765 5762 5758 5755 5752 5749 5746 5743 5740
5867 5867 5867 5867 5866 5866 5866 5865 5864 5863 5862 5863 5862 5861 5860 5859 5857 5856 5855 5854 5853 5852 5852 5851 5850 5850 5849 5848 5847 5846 5845 5845 5844 5843 5841 5840 5840 5839 5838 5837 5836 5836 5836 5835 5833 5831 5831 5832 5830 5829 5827 5826 5824 5821 5819 5817 5816 5816 5814 5810 5808 5806 5803 5801 5798 5796 5793 5790 5787 5783 5780 5776 5773 5771 5768 5765 5761 5758 5755 5751 5748 5745 5742 5739 5736
5865 5865 5865 5865 5865 5864 5864 5863 5863 5862 5861 5861 5861 5859 5858 5857 5857 5855 5854 5853 5852 5851 5850 5850 5849 5849 5848 5847 5846 5845 5844 5843 5842 5842 5840 5839 5838 5837 5837 5835 5833 5832 5833 5833 5832 5831 5829 5830 5830 5828 5826 5825 5823 5820 5817 5814 5813 5813 5811 5808 5805 5803 5801 5798 5796 5793 5790 5787 5784 5780 5777 5773 5771 5768 5765 5761 5758 5754 5751 5747 5744 5741 5738 5735 5733
5863 5863 5864 5863 5863 5863 5862 5862 5861 5860 5860 5860 5860 5858 5856 5856 5856 5855 5853 5852 5851 5849 5849 5848 5848 5847 5847 5845 5844 5843 5842 5842 5841 5840 5839 5838 5836 5835 5835 5834 5832 5830 5830 5830 5830 5830 5828 5827 5828 5827 5826 5824 5822 5820 5817 5813 5811 5810 5808 5805 5803 5801 5798 5796 5793 5791 5787 5784 5780 5777 5774 5771 5768 5765 5761 5758 5754 5750 5747 5743 5740 5737 5734 5732 5729
5861 5861 5862 5862 5862 5861 5861 5860 5859 5859 5858 5858 5858 5857 5855 5854 5854 5853 5852 5850 5849 5848 5848 5847 5846 5846 5845 5844 5843 5841 5840 5840 5839 5838 5838 5836 5835 5833 5832 5832 5831 5828 5827 5827 5827 5827 5826 5825 5824 5824 5824 5822 5821 5818 5815 5811 5809 5808 5806 5803 5800 5798 5796 5793 5791 5788 5785 5781 5778 5774 5771 5768 5765 5762 5758 5754 5751 5747 5743 5740 5737 5734 5731 5728 5725
5858 5859 5860 5860 5860 5860 5859 5858 5858 5857 5856 5856 5856 5856 5854 5852 5851 5851 5851 5849 5848 5847 5846 5845 5845 5844 5843 5842 5841 5840 5838 5838 5837 5836 5836 5835 5833 5832 5831 5830 5830 5828 5826 5826 5825 5824 5823 5822 5821 5820 5820 5820 5819 5817 5813 5810 5807 5806 5804 5801 5798 5796 5793 5791 5788 5785 5782 5778 5775 5772 5768 5765 5762 5758 5755 5751 5747 5743 5740 5736 5733 5730 5727 5724 5720
5856 5857 5857 5858 5858 5858 5857 5857 5856 5855 5855 5854 5854 5854 5853 5852 5850 5849 5849 5848 5847 5845 5844 5844 5843 5842 5842 5841 5840 5839 5837 5836 5836 5835 5834 5833 5832 5830 5829 5828 5828 5828 5826 5825 5824 5823 5821 5821 5820 5818 5817 5816 5815 5814 5811 5808 5805 5804 5801 5798 5795 5793 5791 5788 5785 5782 5779 5776 5772 5769 5765 5762 5759 5755 5751 5748 5744 5740 5737 5733 5730 5727 5723 5720 5716
5855 5855 5855 5856 5856 5856 5856 5855 5854 5854 5853 5853 5852 5852 5852 5851 5850 5848 5847 5846 5845 5844 5843 5842 5841 5840 5840 5839 5838 5837 5836 5835 5835 5834 5832 5832 5831 5829 5827 5825 5824 5825 5825 5824 5822 5821 5819 5818 5818 5817 5815 5812 5811 5810 5808 5805 5803 5801 5799 5796 5793 5791 5788 5786 5783 5779 5776 5773 5769 5766 5762 5759 5756 5752 5748 5744 5740 5737 5733 5730 5726 5723 5719 5716 5712
5853 5853 5853 5853 5854 5854 5854 5854 5853 5852 5852 5851 5851 5850 5849 5848 5848 5847 5846 5844 5843 5843 5842 5841 5840 5839 5838 5837 5837 5836 5835 5834 5833 5832 5831 5830 5829 5828 5825 5823 5822 5822 5822 5822 5820 5819 5817 5816 5816 5815 5814 5811 5808 5806 5804 5802 5800 5799 5796 5793 5790 5788 5786 5783 5779 5776 5773 5769 5766 5763 5760 5756 5753 5749 5745 5741 5737 5733 5730 5726 5723 5719 5715 5712 5708
5851 5851 5851 5851 5851 5851 5852 5852 5851 5851 5850 5850 5849 5848 5847 5846 5845 5845 5844 5842 5841 5840 5840 5839 5838 5837 5836 5835 5834 5834 5832 5832 5831 5830 5830 5829 5828 5827 5825 5823 5821 5819 5819 5819 5818 5817 5815 5813 5812 5812 5812 5810 5808 5805 5802 5801 5799 5797 5794 5791 5788 5786 5784 5780 5777 5773 5770 5766 5763 5760 5757 5753 5749 5745 5741 5737 5734 5730 5726 5723 5719 5715 5712 5708 5705
5849 5849 5849 5849 5849 5849 5849 5850 5850 5849 5848 5848 5847 5846 5845 5844 5843 5843 5842 5841 5839 5838 5837 5836 5835 5835 5834 5833 5832 5831 5830 5829 5829 5828 5827 5826 5826 5825 5824 5822 5821 5819 5817 5816 5815 5814 5813 5811 5809 5808 5808 5808 5806 5804 5802 5800 5798 5795 5791 5788 5785 5783 5781 5778 5774 5770 5767 5763 5760 5757 5754 5750 5746 5742 5738 5734 5730 5727 5723 5719 5715 5712 5708 5705 5701
5847 5847 5847 5847 5847 5847 5847 5847 5848 5848 5847 5846 5845 5844 5843 5842 5841 5840 5840 5839 5838 5837 5836 5834 5833 5833 5832 5831 5830 5829 5828 5827 5827 5826 5825 5824 5823 5822 5822 5822 5820 5818 5816 5813 5812 5811 5810 5808 5806 5805 5805 5805 5804 5802 5800 5799 5796 5792 5789 5786 5783 5780 5778 5775 5771 5767 5764 5760 5757 5754 5750 5747 5743 5739 5735 5731 5727 5723 5719 5716 5712 5709 5705 5701 5698
5844 5845 5845 5845 5845 5845 5845 5846 5846 5846 5845 5844 5843 5842 5841 5840 5839 5838 5837 5837 5836 5835 5834 5833 5832 5831 5830 5829 5828 5827 5826 5825 5824 5824 5823 5822 5820 5819 5819 5819 5818 5817 5815 5813 5811 5810 5809 5807 5805 5803 5803 5803 5801 5799 5798 5796 5793 5789 5786 5783 5780 5778 5775 5772 5768 5764 5761 5757 5754 5751 5747 5743 5740 5736 5732 5728 5724 5720 5716 5713 5709 5705 5702 5698 5694
5841 5842 5842 5842 5842 5843 5843 5843 5844 5843 5843 5843 5842 5841 5840 5838 5837 5836 5835 5834 5833 5832 5832 5831 5830 5829 5828 5827 5826 5825 5824 5823 5822 5821 5821 5820 5818 5817 5816 5815 5814 5814 5814 5812 5811 5810 5809 5807 5805 5803 5801 5800 5798 5796 5795 5793 5789 5787 5785 5781 5778 5775 5772 5768 5764 5761 5757 5754 5751 5747 5744 5740 5736 5732 5728 5724 5721 5717 5713 5709 5706 5702 5698 5695 5691
5837 5839 5839 5839 5840 5840 5840 5841 5841 5841 5841 5840 5840 5839 5838 5837 5835 5834 5833 5832 5831 5830 5830 5829 5828 5827 5826 5825 5824 5823 5822 5821 5820 5819 5818 5818 5816 5815 5813 5811 5811 5811 5811 5811 5810 5809 5808 5806 5804 5802 5800 5798 5796 5793 5792 5789 5786 5785 5782 5779 5775 5772 5769 5765 5761 5757 5754 5751 5748 5744 5741 5737 5733 5729 5725 5721 5717 5713 5710 5706 5702 5699 5695 5691 5688
5834 5835 5836 5836 5837 5837 5837 5838 5839 5839 5838 5838 5838 5837 5837 5835 5834 5832 5831 5830 5829 5828 5828 5827 5826 5825 5824 5823 5822 5821 5820 5820 5819 5818 5816 5815 5814 5813 5811 5810 5808 5808 5808 5808 5808 5807 5806 5805 5803 5801 5799 5797 5795 5792 5789 5786 5784 5782 5780 5776 5772 5769 5765 5761 5757 5754 5751 5748 5744 5741 5737 5734 5730 5726 5722 5718 5714 5710 5706 5703 5699 5695 5692 5688 5684
5830 5831 5832 5833 5833 5834 5834 5835 5836 5836 5836 5835 5835 5835 5835 5833 5832 5830 5829 5828 5827 5826 5826 5825 5824 5823 5822 5821 5821 5820 5819 5818 5817 5816 5815 5813 5812 5811 5809 5808 5807 5805 5805 5805 5804 5804 5803 5803 5801 5799 5797 5796 5793 5790 5787 5783 5781 5779 5777 5774 5769 5766 5762 5758 5754 5751 5748 5745 5741 5738 5734 5730 5727 5723 5719 5715 5711 5707 5703 5700 5696 5692 5688 5684 5681
5826 5828 5829 5829 5830 5831 5831 5832 5833 5833 5833 5833 5832 5832 5832 5831 5830 5828 5827 5826 5825 5824 5824 5823 5822 5821 5820 5819 5818 5818 5817 5816 5815 5814 5813 5811 5810 5808 5807 5806 5805 5804 5802 5801 5801 5800 5800 5799 5798 5796 5795 5793 5791 5788 5785 5781 5779 5776 5774 5771 5767 5763 5759 5755 5751 5748 5745 5742 5739 5735 5731 5727 5724 5720 5716 5712 5708 5704 5700 5696 5693 5689 5685 5681 5677
5822 5824 5825 5826 5827 5827 5828 5829 5830 5830 5830 5830 5830 5830 5830 5829 5828 5826 5825 5824 5823 5822 5822 5821 5820 5819 5818 5817 5816 5815 5814 5814 5813 5812 5811 5809 5808 5806 5805 5804 5803 5802 5800 5798 5797 5797 5796 5795 5794 5793 5791 5790 5787 5785 5782 5779 5776 5773 5771 5767 5764 5760 5757 5753 5749 5745 5742 5739 5736 5732 5728 5725 5721 5717 5713 5709 5705 5700 5697 5693 5690 5686 5682 5678 5674
5818 5819 5820 5822 5823 5824 5825 5826 5827 5827 5826 5826 5827 5827 5827 5826 5825 5824 5823 5822 5821 5820 5819 5818 5818 5817 5816 5815 5814 5813 5812 5812 5811 5810 5809 5807 5806 5804 5803 5802 5800 5799 5798 5796 5795 5794 5793 5792 5791 5789 5787 5785 5783 5782 5780 5777 5773 5770 5767 5764 5761 5757 5754 5751 5747 5743 5740 5736 5733 5729 5725 5721 5717 5714 5710 5706 5701 5697 5693 5690 5686 5683 5679 5675 5671
5813 5814 5816 5818 5819 5820 5821 5822 5823 5824 5823 5823 5824 5824 5824 5824 5823 5822 5821 5820 5819 5818 5817 5816 5815 5815 5814 5813 5812 5811 5810 5809 5808 5807 5806 5805 5803 5802 5801 5799 5797 5796 5795 5794 5793 5792 5791 5789 5787 5786 5783 5781 5780 5779 5777 5774 5771 5767 5764 5761 5758 5755 5751 5748 5745 5741 5737 5733 5729 5726 5723 5719 5715 5711 5707 5702 5698 5694 5690 5687 5683 5680 5676 5672 5668
5809 5810 5812 5813 5815 5816 5817 5818 5819 5820 5820 5820 5820 5821 5821 5821 5820 5819 5818 5817 5816 5815 5814 5813 5812 5812 5811 5810 5809 5808 5807 5806 5805 5805 5804 5802 5801 5800 5798 5797 5795 5794 5793 5792 5791 5790 5788 5786 5784 5782 5780 5777 5776 5775 5774 5771 5767 5764 5762 5759 5755 5752 5749 5746 5742 5739 5734 5730 5726 5723 5720 5716 5712 5708 5704 5699 5696 5691 5687 5683 5680 5676 5672 5668 5664
5803 5805 5807 5809 5810 5812 5812 5813 5814 5816 5817 5816 5817 5818 5818 5818 5817 5817 5815 5814 5813 5813 5812 5810 5810 5809 5809 5807 5807 5806 5805 5803 5802 5802 5801 5800 5799 5797 5796 5795 5794 5793 5792 5790 5788 5787 5785 5783 5781 5779 5777 5774 5772 5772 5771 5768 5765 5761 5759 5756 5753 5750 5747 5744 5740 5736 5731 5727 5723 5720 5718 5714 5709 5705 5701 5697 5693 5688 5684 5680 5677 5673 5669 5665 5661
5798 5800 5802 5804 5805 5807 5808 5808 5810 5812 5813 5813 5813 5814 5815 5814 5814 5814 5813 5811 5811 5810 5809 5808 5807 5806 5806 5805 5804 5803 5802 5801 5799 5799 5799 5797 5796 5795 5794 5793 5792 5791 5790 5788 5785 5783 5782 5781 5779 5777 5775 5772 5769 5769 5768 5766 5763 5759 5756 5753 5750 5748 5745 5742 5738 5734 5730 5725 5721 5717 5714 5711 5706 5702 5698 5693 5689 5685 5681 5677 5673 5670 5666 5662 5658
5792 5795 5797 5799 5800 5802 5803 5804 5805 5807 5809 5809 5810 5810 5811 5811 5811 5810 5810 5808 5807 5807 5806 5805 5804 5803 5803 5802 5801 5800 5800 5799 5797 5797 5796 5795 5794 5793 5792 5791 5789 5788 5787 5785 5783 5781 5780 5779 5777 5775 5773 5770 5767 5765 5764 5763 5760 5757 5754 5750 5747 5745 5742 5739 5736 5733 5728 5723 5718 5714 5711 5707 5703 5699 5695 5690 5686 5682 5678 5674 5670 5666 5663 5658 5654
5787 5789 5791 5793 5795 5797 5799 5799 5800 5802 5804 5805 5806 5806 5807 5807 5807 5807 5806 5805 5804 5804 5803 5802 5801 5801 5800 5799 5798 5797 5796 5796 5794 5794 5793 5792 5791 5790 5789 5788 5786 5784 5783 5782 5781 5779 5777 5776 5774 5773 5770 5768 5765 5762 5761 5759 5757 5754 5751 5748 5745 5743 5740 5737 5734 5731 5726 5721 5716 5712 5708 5705 5700 5697 5692 5687 5683 5679 5675 5671 5667 5663 5659 5655 5651
5782 5784 5786 5788 5790 5792 5793 5794 5796 5798 5799 5801 5802 5803 5803 5804 5804 5803 5803 5802 5801 5800 5799 5799 5798 5798 5797 5796 5795 5794 5793 5792 5791 5790 5790 5789 5788 5787 5786 5785 5783 5782 5781 5780 5778 5777 5775 5773 5772 5770 5768 5765 5762 5759 5757 5755 5753 5751 5748 5745 5742 5739 5736 5733 5731 5728 5724 5719 5714 5709 5706 5702 5698 5694 5689 5685 5681 5677 5672 5668 5663 5659 5655 5651 5647
5776 5779 5781 5783 5785 5786 5787 5789 5791 5793 5794 5796 5798 5799 5799 5800 5800 5800 5800 5799 5798 5797 5796 5795 5795 5794 5794 5793 5792 5791 5790 5789 5788 5787 5786 5785 5785 5784 5784 5783 5781 5780 5779 5777 5776 5774 5772 5770 5768 5767 5765 5762 5759 5756 5754 5752 5750 5748 5745 5742 5740 5737 5734 5731 5728 5725 5721 5717 5712 5707 5703 5700 5695 5691 5687 5683 5678 5674 5669 5664 5660 5655 5652 5647 5644
5771 5773 5776 5777 5779 5780 5782 5784 5786 5787 5789 5791 5793 5795 5795 5796 5797 5796 5796 5796 5795 5793 5793 5792 5791 5791 5791 5790 5790 5789 5788 5787 5785 5784 5783 5783 5782 5782 5781 5780 5779 5778 5777 5775 5773 5771 5769 5767 5765 5763 5761 5760 5757 5754 5751 5749 5747 5745 5743 5740 5737 5734 5731 5728 5725 5722 5718 5714 5710 5705 5701 5697 5693 5688 5684 5679 5675 5670 5666 5661 5656 5652 5648 5644 5640
5765 5767 5769 5771 5773 5775 5777 5779 5780 5782 5784 5787 5789 5790 5791 5792 5792 5792 5792 5792 5791 5790 5789 5789 5788 5787 5787 5786 5786 5786 5785 5784 5782 5781 5780 5780 5779 5779 5779 5778 5776 5775 5774 5772 5770 5768 5766 5764 5762 5760 5758 5757 5754 5751 5748 5746 5744 5742 5740 5737 5734 5731 5728 5724 5721 5718 5715 5711 5707 5702 5697 5694 5690 5685 5680 5676 5671 5667 5662 5658 5653 5648 5644 5640 5636
5758 5760 5763 5765 5768 5770 5772 5774 5775 5777 5780 5782 5784 5785 5786 5787 5788 5788 5788 5788 5787 5786 5786 5785 5785 5784 5783 5783 5782 5782 5781 5780 5779 5778 5777 5777 5776 5776 5775 5774 5773 5772 5770 5768 5766 5765 5763 5761 5759 5757 5755 5753 5752 5749 5746 5743 5741 5740 5737 5734 5731 5728 5725 5722 5718 5715 5712 5708 5704 5699 5694 5690 5686 5682 5677 5673 5668 5663 5659 5655 5650 5645 5640 5636 5633
5752 5754 5757 5760 5762 5765 5767 5769 5771 5773 5776 5778 5779 5780 5782 5783 5783 5784 5784 5784 5783 5782 5782 5782 5781 5780 5779 5779 5779 5779 5778 5777 5776 5775 5774 5773 5773 5772 5772 5771 5770 5769 5767 5765 5763 5761 5760 5758 5756 5754 5752 5750 5749 5746 5743 5740 5738 5737 5734 5731 5728 5725 5722 5719 5715 5712 5709 5706 5701 5696 5691 5687 5683 5679 5674 5670 5665 5660 5656 5651 5646 5642 5637 5633 5630
5746 5748 5751 5754 5757 5759 5761 5763 5766 5769 5771 5772 5773 5775 5777 5778 5779 5779 5779 5779 5779 5779 5778 5778 5778 5777 5776 5775 5775 5775 5774 5773 5772 5771 5770 5770 5769 5769 5768 5767 5766 5765 5764 5762 5760 5758 5757 5755 5753 5751 5749 5747 5746 5743 5741 5738 5736 5734 5731 5728 5726 5723 5719 5716 5713 5709 5706 5703 5699 5694 5689 5684 5681 5676 5671 5667 5662 5657 5652 5648 5643 5639 5634 5630 5627
5739 5742 5745 5748 5751 5753 5755 5757 5761 5763 5766 5767 5768 5770 5772 5773 5774 5774 5774 5774 5774 5774 5774 5774 5775 5774 5773 5771 5771 5771 5770 5769 5768 5767 5766 5766 5766 5765 5764 5763 5762 5761 5760 5759 5757 5755 5753 5752 5750 5748 5746 5744 5742 5740 5738 5736 5733 5731 5728 5726 5723 5720 5717 5713 5710 5707 5703 5700 5696 5692 5687 5682 5678 5674 5669 5664 5659 5654 5649 5645 5640 5636 5632 5628 5624
5733 5736 5739 5742 5745 5747 5749 5752 5754 5757 5760 5762 5763 5765 5767 5769 5769 5769 5769 5770 5770 5770 5770 5770 5771 5771 5770 5768 5767 5767 5766 5765 5764 5763 5762 5762 5762 5761 5760 5759 5758 5757 5757 5755 5754 5752 5750 5748 5746 5745 5743 5741 5739 5736 5734 5732 5730 5727 5725 5723 5720 5717 5714 5711 5708 5704 5701 5698 5694 5690 5685 5680 5676 5672 5667 5662 5657 5652 5647 5642 5638 5633 5629 5625 5621
5726 5729 5732 5735 5738 5740 5743 5745 5747 5750 5754 5756 5758 5760 5762 5763 5763 5764 5764 5765 5765 5766 5766 5766 5767 5767 5766 5765 5764 5763 5762 5761 5760 5759 5758 5758 5758 5757 5756 5755 5754 5753 5753 5751 5750 5749 5747 5745 5743 5741 5740 5738 5735 5732 5730 5728 5726 5724 5722 5720 5717 5715 5711 5708 5705 5701 5698 5695 5692 5687 5683 5678 5674 5671 5666 5660 5655 5650 5645 5640 5635 5631 5626 5622 5619
5719 5722 5725 5728 5731 5734 5736 5738 5741 5744 5748 5751 5752 5755 5757 5757 5758 5758 5759 5760 5761 5761 5761 5762 5762 5763 5762 5761 5760 5759 5758 5758 5756 5755 5754 5754 5754 5753 5752 5751 5750 5749 5749 5747 5746 5745 5743 5741 5740 5738 5736 5734 5731 5729 5726 5725 5723 5721 5719 5717 5714 5712 5709 5705 5702 5699 5695 5692 5689 5685 5681 5677 5673 5669 5664 5658 5653 5649 5643 5638 5633 5628 5624 5620 5617
5712 5715 5718 5721 5724 5727 5729 5732 5735 5738 5742 5745 5747 5749 5750 5752 5752 5753 5754 5755 5755 5756 5757 5757 5758 5758 5758 5757 5756 5755 5754 5754 5752 5751 5750 5749 5749 5749 5748 5747 5746 5746 5745 5743 5742 5741 5739 5737 5736 5734 5733 5731 5728 5725 5723 5722 5720 5718 5716 5714 5711 5708 5705 5702 5699 5696 5692 5690 5686 5682 5678 5675 5670 5666 5662 5656 5650 5646 5642 5637 5632 5627 5622 5618 5615
5704 5708 5711 5713 5716 5719 5722 5725 5728 5731 5735 5738 5740 5742 5744 5746 5746 5747 5748 5749 5750 5751 5752 5752 5753 5754 5753 5753 5752 5751 5750 5750 5748 5747 5745 5745 5745 5745 5744 5743 5742 5741 5740 5739 5737 5736 5735 5734 5732 5730 5729 5727 5725 5722 5720 5719 5717 5715 5713 5711 5708 5705 5702 5699 5696 5693 5690 5687 5684 5680 5676 5673 5668 5664 5660 5655 5649 5644 5640 5635 5630 5625 5621 5616 5613